User: anonymous   Login
Location: Unspecified
(0.0000°N, 0.0000°E)
Time: 07:20:08
(UTC+02:00)
Language:

Hamsat - Orbit

View from above orbital plane
View from above orbital plane
View from above satellite
View from above satellite

Ground track
Ground track

The orbit data is extracted from the following two-line orbital elements,

1 28650U 05017B   16176.86393949  .00000354  00000-0  43872-4 0  9996
2 28650  97.6081 158.3957 0022383 231.6552 128.2653 14.88307757603011
Epoch (UTC): 24 June 2016 20:44:04
Eccentricity: 0.0022383
inclination: 97.6081°
perigee height: 587 km
apogee height: 619 km
right ascension of ascending node: 158.3957°
argument of perigee: 231.6552°
revolutions per day: 14.88307757
mean anomaly at epoch: 128.2653°
orbit number at epoch: 60301

The dashed part of the orbit path shows where the satellite is in the earth's shadow,  

DLR